Location: Dobrzeń Wielki
(50.7693°N, 17.8414°E)
Time: 08:13:24
(UTC+01:00)

Envisat - Pass Details

Date: 29 October 2019
Orbit: 764 x 766 km, 98.1° (Epoch: 22 November)

Event Time Altitude Azimuth Distance (km) Brightness Sun altitude
Rises 17:56:05 0° 173° (S) 3,222 6.2 -14.2°
Reaches altitude 10° 17:58:24 10° 176° (S) 2,300 5.5 -14.5°
Maximum altitude 18:03:26 65° 258° (WSW) 843 3.4 -15.3°
Drops below altitude 10° 18:08:31 10° 341° (NNW) 2,316 5.7 -16.1°
Sets 18:10:52 0° 344° (NNW) 3,246 6.4 -16.5°
